Location: Unspecified
(51.0950°N, 12.9690°E)
Time: 22:28:58
(UTC+00:00)

First-Move - Pass Details

Date: 02 May 2024
Orbit: 539 x 600 km, 97.7° (Epoch: 17 May)

Event Time Altitude Azimuth Distance (km) Brightness Sun altitude
Rises 02:43:21 0° 14° (NNE) 2,874 ? -8.2°
Reaches altitude 10° 02:45:33 10° 15° (NNE) 1,965 ? -7.9°
Maximum altitude 02:49:50 85° 101° (ESE) 613 ? -7.4°
Drops below altitude 10° 02:54:04 10° 193° (SSW) 1,934 ? -6.9°
Enters shadow 02:56:03 - 194° (SSW) 2,759 ? -6.6°
